Location: Lecco
(45.8566°N, 9.3977°E)
Time: 21:42:09
(UTC+02:00)

Vanguard 1 Rocket - Pass Details

Date: 23 August 2020
Orbit: 655 x 4221 km, 34.3° (Epoch: 30 September)

Event Time Altitude Azimuth Distance (km) Brightness Sun altitude
Exits shadow 04:44:49 21° 226° (SW) 4,815 10.4 -17.4°
Maximum altitude 04:54:47 41° 172° (S) 2,747 9.6 -16.0°
Drops below altitude 10° 05:03:14 10° 105° (ESE) 3,462 10.9 -14.8°
Sets 05:05:41 0° 98° (E) 4,122 11.6 -14.4°
